EHI
0 0 0 0 0 0 0 0 0 0 0 0 0 0 0 0 0 0 0 0 1 2 5 10 13 12 10 11 11 11 10 10 9 7 6 6 4 2 2 1 0 0 0 0 0 0 0 0 0
0 0 0 0 0 0 0 0 0 0 0 0 0 0 0 0 0 0 0 0 2 5 7 9 12 13 11 11 12 12 10 9 9 7 6 5 4 3 2 1 0 1 1 0 0 0 0 0 0
0 0 0 0 0 0 0 0 0 0 0 0 0 0 0 0 0 0 0 1 4 7 8 9 12 13 12 11 11 11 9 9 8 7 5 5 4 3 2 1 1 2 2 1 0 0 0 0 0
0 0 0 0 0 0 0 0 0 0 0 0 0 0 0 0 0 0 0 2 6 10 10 9 12 14 11 9 9 9 9 9 8 7 6 5 4 4 3 2 2 3 3 2 1 0 0 0 0
0 0 0 0 0 0 0 0 0 0 0 0 0 0 0 0 0 0 1 3 8 12 11 10 12 13 11 9 8 9 10 10 9 7 6 6 6 6 5 4 3 3 2 2 1 0 0 0 0
0 0 0 0 0 0 0 0 0 0 0 0 0 0 0 0 0 1 3 6 10 12 11 11 12 12 11 9 9 9 10 10 9 7 6 6 6 6 5 4 3 2 2 1 1 1 0 0 0
0 0 0 0 0 0 0 0 0 0 0 0 0 0 0 0 0 1 4 7 10 10 9 10 11 11 11 10 9 8 9 9 8 7 6 5 4 3 3 3 3 2 2 2 2 1 0 0 0
0 0 0 0 0 0 0 0 0 0 0 0 0 0 0 0 1 3 5 7 9 8 8 8 9 10 10 10 8 8 7 7 6 5 4 3 2 1 1 1 2 2 2 2 1 1 0 0 0
0 0 0 0 0 0 0 0 0 0 0 0 0 0 0 1 3 5 7 7 8 7 7 8 9 9 9 8 8 7 5 4 3 3 2 2 1 0 0 1 1 1 1 1 0 0 0 0 0
0 0 0 0 0 0 0 0 0 0 0 0 0 0 0 1 3 5 7 8 7 6 5 7 8 8 7 7 6 5 4 2 1 1 1 1 1 0 0 0 0 0 0 0 0 0 0 0 0
0 0 0 0 0 0 0 0 0 0 0 0 0 0 0 1 2 4 6 8 7 5 5 6 8 7 6 6 4 4 4 3 2 1 1 0 0 0 0 0 0 0 0 0 0 0 0 0 0
0 0 0 0 0 0 0 0 0 0 0 0 0 0 0 1 2 4 6 8 8 6 5 6 7 6 5 5 5 4 4 4 3 1 0 0 1 1 1 0 0 0 0 0 0 0 0 0 0
0 0 0 0 0 0 0 0 0 0 0 0 0 0 0 1 2 4 6 8 8 7 6 6 6 5 4 5 4 3 3 4 3 1 0 0 1 2 1 0 0 0 0 0 0 0 0 0 0
0 0 0 0 0 0 0 0 0 0 0 0 0 0 0 0 1 3 6 9 9 8 7 6 5 4 4 4 3 3 3 3 3 2 1 0 1 1 1 0 0 0 0 0 0 0 0 0 0
0 0 0 0 0 0 0 0 0 0 0 0 0 0 0 0 0 2 5 8 8 8 8 6 4 3 3 3 3 3 3 3 3 3 2 1 0 0 0 0 0 0 0 0 0 0 0 0 0
0 0 0 0 0 0 0 0 0 0 0 0 0 0 0 0 0 1 4 6 6 7 7 6 4 3 3 3 3 3 3 3 3 3 2 1 0 0 0 0 0 0 0 0 0 0 0 0 0
0 0 0 0 0 0 0 0 0 0 0 0 0 0 0 0 0 1 3 4 4 6 6 5 3 3 3 3 3 2 2 2 2 2 2 1 0 0 0 0 0 0 0 0 0 0 0 0 0
0 0 0 0 0 0 0 0 0 0 0 0 0 0 0 0 0 1 2 3 3 4 4 3 2 2 2 2 1 1 1 1 1 1 1 0 0 0 0 0 0 0 0 0 0 0 0 0 0
0 0 0 0 0 0 0 0 0 0 0 0 0 0 0 0 0 1 2 3 3 3 3 2 1 1 1 1 0 0 0 0 0 0 0 0 0 0 0 0 0 0 0 0 0 0 0 0 0
0 0 0 0 0 0 0 0 0 0 0 0 0 0 0 0 0 0 1 2 3 3 2 1 0 0 0 0 0 0 0 0 0 0 0 0 0 0 0 0 0 0 0 0 0 0 0 0 0
0 0 0 0 0 0 0 0 0 0 0 0 0 0 0 0 0 0 0 1 2 3 3 1 0 0 0 0 0 0 0 0 0 0 0 0 0 0 0 0 0 0 0 0 0 0 0 0 0
0 0 0 0 0 0 0 0 0 0 0 0 0 0 0 0 0 0 0 0 1 2 3 2 1 0 0 0 0 0 0 0 0 0 0 0 0 0 0 0 0 0 0 0 0 0 0 0 0
0 0 0 0 0 0 0 0 0 0 0 0 0 0 0 0 0 0 0 0 0 1 3 3 1 0 0 0 0 0 0 0 0 0 0 0 0 0 0 0 0 0 0 0 0 0 0 0 0
0 0 0 0 0 0 0 0 0 0 0 0 0 0 0 0 0 0 0 0 0 1 2 2 2 1 0 0 0 0 0 0 0 0 0 0 0 0 0 0 0 0 0 0 0 0 0 0 0
0 0 0 0 0 0 0 0 0 0 0 0 0 0 0 0 0 0 0 0 0 0 1 1 2 2 1 0 0 0 0 0 0 0 0 0 0 0 0 0 0 0 0 0 0 0 0 0 0
0 0 0 0 0 0 0 0 0 0 0 0 0 0 0 0 0 0 0 0 0 0 0 1 2 2 1 0 0 0 0 0 0 0 0 0 0 0 0 0 0 0 0 0 0 0 0 0 0
0 0 0 0 0 0 0 0 0 0 0 0 0 0 0 0 0 0 0 0 0 0 0 0 1 1 0 0 0 0 0 0 0 0 0 0 0 0 0 0 0 0 0 0 0 0 0 0 0
0 0 0 0 0 0 0 0 0 0 0 0 0 0 0 0 0 0 0 0 0 0 0 0 0 0 0 0 0 0 0 0 0 0 0 0 0 0 0 0 0 0 0 0 0 0 0 0 0
0 0 0 0 0 0 0 0 0 0 0 0 0 0 0 0 0 0 0 0 0 0 0 0 0 0 0 0 0 0 0 0 0 0 0 0 0 0 0 0 0 0 0 0 0 0 0 0 0
0 0 0 0 0 0 0 0 0 0 0 0 0 0 0 0 0 0 0 0 0 0 0 0 0 0 0 0 0 0 0 0 0 0 0 0 0 0 0 0 0 0 0 0 0 0 0 0 0
Wind_Speed
3 3 3 4 6 3 4 4 3 2 2 1 1 3 5 5 5 4 1 3 4 6 6 7 11 11 11 11 11 11 11 11 11 11 11 12 12 12 13 13 13 13 13 13 14 14 14 14 14
1 2 5 5 4 3 5 4 5 5 3 2 1 1 2 1 0 1 0 2 5 6 5 6 11 12 11 11 11 11 11 11 11 11 11 12 12 12 13 13 13 13 13 13 14 14 14 14 14
2 4 5 4 4 7 6 4 5 2 2 1 1 1 1 1 1 1 1 3 5 5 4 6 12 12 12 11 11 11 11 11 11 11 11 12 12 12 13 13 13 13 13 13 14 14 14 14 14
3 4 5 3 6 6 4 3 3 2 0 1 2 1 0 1 1 2 2 4 6 5 4 6 11 11 11 11 11 11 11 11 11 11 12 12 12 12 13 13 13 13 13 13 14 14 14 14 14
4 4 3 2 6 4 3 2 3 3 2 1 2 2 1 1 2 4 5 5 7 5 4 6 11 11 11 11 11 11 11 11 11 11 11 12 12 12 12 12 13 12 13 13 14 14 14 14 14
4 4 3 6 7 3 2 3 3 2 2 1 3 2 2 1 3 3 5 5 5 5 4 5 10 11 11 11 11 11 11 11 11 11 11 12 12 12 12 12 12 13 13 13 13 14 14 14 14
4 4 4 5 4 4 4 3 4 3 3 4 4 3 2 0 1 4 5 5 5 5 5 4 5 7 9 10 11 11 11 11 11 11 12 11 11 11 11 12 12 13 13 13 13 13 14 14 14
4 4 3 4 5 5 3 3 2 4 4 2 4 5 4 3 3 5 5 5 4 4 4 4 5 5 5 6 9 10 11 11 11 11 12 11 11 10 11 10 11 12 13 13 13 14 14 14 14
3 3 6 8 6 4 3 2 0 1 3 1 1 2 1 6 6 6 5 3 3 4 3 4 5 5 5 5 7 8 9 10 9 9 11 9 5 5 6 8 11 12 13 13 13 14 14 14 13
3 5 9 4 4 3 3 3 3 2 1 2 1 1 3 7 8 8 7 7 6 5 5 4 5 5 5 5 4 4 4 5 5 5 5 5 5 5 6 9 11 12 13 13 14 14 13 10 6
3 5 4 3 2 2 3 2 3 4 4 6 6 5 6 7 8 8 7 7 6 5 5 5 5 5 5 4 4 3 3 3 4 5 5 5 4 4 4 4 5 6 9 7 8 8 6 5 5
2 3 3 2 1 1 3 3 3 5 6 3 4 7 8 10 10 9 8 7 5 5 5 5 6 6 5 5 4 3 3 3 3 3 4 4 3 3 3 3 3 4 3 4 4 4 6 6 6
4 3 2 2 1 1 1 2 3 5 4 0 4 6 8 9 8 7 5 5 5 5 6 5 6 6 6 5 4 4 3 3 3 3 3 4 4 4 3 3 3 3 3 4 4 5 5 6 6
2 2 3 2 1 1 2 3 2 6 1 1 4 6 7 8 7 5 5 6 6 6 6 5 6 7 6 5 4 4 3 4 3 3 3 4 4 4 4 3 3 3 3 3 4 4 5 4 5
1 1 3 3 3 1 1 4 6 4 1 2 2 3 4 5 5 6 7 7 6 6 6 6 5 6 7 6 5 4 3 4 3 3 3 4 4 4 4 4 3 3 3 4 4 5 4 5 5
1 0 3 3 2 1 3 8 3 1 3 3 3 3 3 4 4 4 4 4 4 5 6 7 6 6 6 5 5 4 3 4 3 3 3 4 4 5 5 4 3 3 3 3 4 4 4 4 4
1 2 4 3 1 2 3 7 3 1 3 3 3 3 4 3 3 3 3 4 4 5 7 7 6 7 6 5 4 4 3 3 3 3 3 3 4 5 4 4 3 4 3 3 4 3 3 4 4
4 4 3 4 2 2 4 6 5 1 2 4 3 3 3 4 5 4 3 3 3 3 5 6 6 6 6 5 4 3 3 2 2 2 3 4 4 5 4 4 4 4 4 3 4 4 4 3 3
2 3 4 4 2 2 5 7 7 3 2 3 3 2 3 4 3 1 2 3 2 3 4 6 7 6 6 5 4 3 3 2 2 2 3 3 4 4 5 4 4 3 4 4 4 4 5 3 2
3 4 4 3 1 3 4 7 5 4 3 3 3 4 4 3 2 1 1 2 3 4 5 5 7 7 7 5 4 3 3 3 2 2 2 3 4 4 4 5 4 4 4 4 4 5 3 2 2
3 4 4 3 2 1 2 7 4 2 1 1 1 2 2 3 2 1 2 3 3 4 5 5 6 7 7 6 5 4 4 3 2 2 1 2 3 4 4 4 4 4 4 4 4 4 4 3 1
5 3 3 2 1 3 1 5 6 3 3 3 3 2 2 2 2 1 1 2 3 4 3 4 5 6 7 7 7 7 5 4 3 3 3 3 3 3 4 4 4 4 3 4 3 2 3 4 2
3 1 2 2 2 2 1 3 7 1 3 5 3 3 3 2 2 1 2 2 2 2 3 3 5 5 6 6 7 7 5 3 3 4 4 3 3 3 3 4 4 4 3 4 3 2 3 2 3
1 1 1 1 2 4 5 4 6 2 4 4 3 3 3 2 1 1 0 1 1 1 2 2 4 5 5 6 6 6 6 6 6 5 5 3 2 2 3 4 4 4 4 4 3 3 3 2 3
2 3 2 2 1 6 2 4 7 3 2 2 3 3 2 1 1 1 1 1 1 2 2 2 3 4 5 5 6 6 6 7 7 6 6 4 3 2 3 4 4 3 4 4 3 3 3 3 3
2 4 4 4 4 4 1 5 6 1 2 3 3 2 1 1 1 1 1 2 2 2 2 2 2 3 5 5 5 5 5 4 4 5 5 5 4 3 4 4 4 4 4 4 4 3 3 3 3
2 3 2 3 1 2 4 4 6 2 4 5 4 3 2 2 1 1 1 1 2 2 2 2 2 3 4 5 4 4 5 5 4 4 4 4 3 3 4 4 4 4 4 4 4 3 3 3 2
2 3 3 2 2 4 4 4 4 4 5 6 5 5 4 3 2 1 0 1 1 1 1 1 2 3 3 4 4 4 4 4 4 4 5 4 4 4 5 4 5 5 4 4 4 4 3 3 2
1 2 1 2 2 3 4 5 2 2 2 4 5 4 4 3 3 2 2 1 1 1 1 1 2 2 2 3 3 4 4 4 5 4 4 4 4 4 5 5 5 5 5 5 5 4 4 4 3
3 4 4 3 3 3 3 6 1 1 2 3 4 5 4 3 2 2 2 2 2 2 1 1 1 2 2 2 3 4 4 4 5 4 4 4 4 4 4 4 4 4 5 5 5 5 5 5 4
Wind_Direction
359 55 73 61 62 61 225 229 199 202 214 213 165 151 159 164 167 197 290 149 137 142 153 157 143 136 131 125 117 112 109 105 100 95 91 86 81 79 79 78 76 74 74 76 76 75 74 75 75
56 74 60 67 111 199 245 218 206 211 184 121 68 114 125 203 119 86 37 158 139 139 145 149 139 136 131 126 120 116 112 108 103 99 94 90 86 81 79 77 75 74 73 74 76 74 74 74 73
99 62 89 94 159 198 216 210 207 218 190 130 95 56 145 179 158 198 224 155 128 130 135 145 137 136 132 128 123 120 116 111 106 100 97 93 88 83 79 77 76 75 73 73 75 74 73 72 71
91 58 62 104 218 220 202 199 176 154 132 106 137 110 256 68 188 185 132 136 125 125 129 143 136 136 132 127 124 120 115 112 107 102 99 94 89 85 81 78 76 75 74 74 75 75 74 72 71
66 88 96 223 238 238 224 207 170 164 178 167 146 167 252 5 71 106 118 131 131 128 128 140 135 135 132 127 123 120 118 114 109 105 101 96 91 88 84 80 76 76 74 74 75 75 74 73 72
73 88 146 222 236 242 236 204 156 168 180 167 154 164 230 54 93 110 118 124 123 121 117 125 137 134 132 129 126 122 117 114 109 104 101 96 93 89 85 82 79 77 76 75 75 76 74 73 73
123 133 191 208 226 241 222 178 166 180 200 204 167 155 236 304 123 119 115 112 112 115 116 114 123 129 129 126 122 117 113 110 107 102 97 93 90 88 86 84 81 78 76 75 76 76 75 73 71
130 125 191 207 211 235 202 169 183 179 202 175 149 165 218 208 136 111 102 108 118 119 121 120 114 112 116 120 118 114 111 107 103 99 93 89 86 84 83 80 81 79 77 74 75 77 75 73 70
102 128 214 210 199 218 182 165 234 111 128 138 198 208 215 133 129 119 110 109 134 138 134 131 122 116 113 114 112 109 105 101 97 94 91 84 75 75 72 73 79 78 77 74 74 77 74 71 67
127 197 223 206 188 183 178 176 176 138 168 223 277 12 112 133 147 153 159 165 170 172 161 144 133 127 121 116 111 102 96 95 89 89 90 85 79 70 68 69 75 76 74 71 69 69 67 63 59
167 209 223 230 228 177 177 183 170 154 222 221 211 183 156 155 162 172 179 178 177 177 168 155 143 136 131 124 119 108 102 99 92 95 94 93 85 76 65 65 60 63 65 61 59 56 50 53 55
176 238 225 239 228 180 186 179 195 206 230 236 193 162 163 169 179 185 188 182 172 174 172 160 149 142 136 130 127 124 119 113 107 105 105 104 96 84 74 72 63 59 62 68 59 61 54 54 55
219 237 238 224 223 173 148 228 232 253 266 31 120 149 171 182 189 193 191 179 170 182 179 165 158 150 143 137 137 129 131 127 124 117 107 109 110 103 90 82 73 68 70 74 71 67 62 56 54
217 235 258 268 249 232 202 261 256 266 271 136 148 173 186 192 194 187 189 189 187 186 182 169 165 156 148 145 143 138 137 131 126 121 117 114 116 114 106 95 84 75 74 76 78 77 69 59 57
186 269 296 273 242 235 150 279 252 270 152 160 185 195 192 202 194 198 198 196 191 185 177 171 168 157 154 149 145 138 138 133 129 126 120 115 116 120 115 106 95 84 83 86 86 79 74 67 59
70 76 263 277 213 202 169 256 278 244 164 193 208 209 209 216 213 213 205 203 192 177 176 173 168 164 159 150 142 138 137 134 131 130 124 119 118 122 119 114 106 98 91 92 94 85 80 67 60
50 237 246 276 220 151 189 254 294 96 171 210 221 221 226 237 240 224 206 201 197 184 173 171 166 168 159 144 132 125 126 126 129 129 126 127 126 125 123 120 116 109 100 94 95 85 88 83 68
218 217 230 238 233 163 220 257 286 248 207 223 228 233 234 235 241 227 206 194 186 176 167 167 163 162 149 135 121 113 106 110 113 124 130 130 129 128 123 119 117 113 109 97 97 97 81 87 82
201 202 234 244 229 207 239 261 272 258 227 233 235 235 245 246 261 241 203 177 156 159 167 168 162 159 153 148 146 142 142 131 119 119 124 125 128 129 127 125 122 116 116 117 119 111 95 79 82
213 232 253 279 253 218 258 271 269 244 218 219 223 231 245 269 327 307 216 176 173 179 180 172 170 165 164 162 149 138 133 133 131 118 119 121 128 134 136 137 136 132 127 128 128 121 107 87 46
239 221 231 252 303 269 300 290 268 259 228 295 251 236 236 232 239 250 216 196 176 183 190 183 176 168 163 150 132 119 104 95 112 128 141 128 134 137 137 141 138 141 141 147 148 140 127 131 56
251 239 222 224 227 273 195 280 275 252 277 284 276 261 254 255 243 219 189 194 193 196 186 181 170 165 160 154 157 156 158 161 173 160 156 141 138 141 139 141 138 139 139 146 156 133 135 138 132
237 279 215 210 194 281 221 227 282 297 273 280 278 271 261 254 229 207 201 200 190 176 169 169 159 159 160 162 166 164 161 151 140 137 142 145 138 140 141 143 141 141 142 148 146 132 129 136 140
199 41 44 64 96 259 225 195 277 257 250 291 293 285 271 254 242 216 136 107 123 119 127 138 152 157 162 163 164 166 163 153 149 153 158 156 143 140 143 141 144 146 147 152 153 143 136 131 123
57 87 14 340 280 249 200 198 249 260 281 276 280 276 278 259 211 169 124 139 140 135 128 131 153 163 164 164 168 171 169 164 167 169 170 164 160 163 170 153 152 153 151 150 146 141 142 139 134
216 155 171 215 232 275 253 228 249 273 343 339 318 300 310 313 302 209 183 169 161 153 147 152 162 165 164 167 174 170 167 167 169 169 167 172 174 171 166 158 153 153 151 149 144 142 145 137 135
153 199 192 146 203 261 264 282 291 1 355 353 348 351 324 298 291 270 177 154 155 155 171 177 169 163 167 170 163 163 165 165 166 164 160 161 160 156 153 153 152 151 150 148 143 140 145 138 137
149 154 104 139 197 251 273 261 261 307 323 337 338 331 327 331 326 330 354 143 157 160 161 158 162 171 166 162 164 162 163 163 158 156 161 160 157 150 149 153 155 152 151 148 142 142 145 139 146
126 137 143 163 191 196 251 265 244 252 303 313 314 321 318 318 323 334 353 16 49 63 89 123 146 140 142 152 152 152 156 152 150 156 166 165 156 155 158 159 156 155 156 154 151 153 151 149 152
172 180 162 182 238 211 221 262 317 1 343 336 323 326 333 332 338 353 15 34 45 45 47 94 151 152 153 148 148 151 151 150 154 161 164 161 160 161 157 152 152 156 158 159 161 163 160 160 166